Terug naar catalogus

THORAD AGENA D DEB

ActiefPO
NORAD 4754·DEBRIS·🇺🇸 United States

Gelanceerd Apr 8, 1970 vanaf Vandenberg Space Force Base

Loading…

Volgende Passages (komende 24 uur)

TLE

VersSource: Space-Track

Epoch: Sep 14, 2026, 21:38 UTC

1 04754U 70025DC  26257.90193854  .00005382  00000-0  18141-2 0  9990
2 04754  99.5910 231.5862 0016447  21.7474 338.4404 14.37412977846693

Volg THORAD AGENA D DEB in realtime met AllMySat

Download on the App Store